Mirador de Bellmunt





Hora UTC 07:45
Temperatura -1.4 ºC
Humitat 94.0 %
Pressió 1000.2 hPa
Pluja 0.2 mm
Velocitat vent 16.1 km/h
Direcció vent W

Dades diàries 2019-11-15



Hora UTC (hivern +1h; estiu +2h)
Temperatura (ºC) Humitat (%) Pressió (hPa) Velocitat vent (km/h) Precipitació (mm)
Hora UTC Aire Humitat Pressió Vel. Dir. Vel. Max Dir. Intent. màx 5 min.
00:05 -1.0 96.0 997.4 0.0 W 0.0 0.0
00:10 -0.9 96.0 997.6 6.4 W 12.9 0.0
00:15 -0.9 96.0 997.6 6.4 W 12.9 0.0
00:20 -1.1 96.0 997.6 1.6 W 17.7 0.0
00:25 -1.1 96.0 997.6 3.2 W 17.7 0.0
00:30 -1.1 96.0 997.7 0.0 W 12.9 0.0
00:35 -1.1 96.0 997.8 9.7 W 12.9 0.0
00:40 -1.0 96.0 997.9 4.8 W 12.9 0.0
00:45 -1.0 96.0 997.9 4.8 W 12.9 0.0
00:50 -0.9 96.0 998.0 3.2 W 14.5 0.0
00:55 -1.0 96.0 998.1 3.2 W 14.5 0.0
01:00 -1.0 96.0 998.0 6.4 W 14.5 0.0
01:05 -0.9 96.0 998.0 0.0 W 11.3 0.0
01:10 -0.9 96.0 998.0 1.6 W 9.7 0.0
01:15 -1.0 96.0 998.0 1.6 W 4.8 0.0
01:20 -1.1 96.0 998.0 0.0 W 4.8 0.0
01:25 -1.2 96.0 998.2 0.0 W 3.2 0.0
01:30 -1.2 96.0 998.3 0.0 W 3.2 0.0
01:35 -1.1 96.0 998.3 0.0 W 3.2 0.0
01:40 -1.1 96.0 998.4 1.6 W 3.2 0.0
01:45 -1.0 96.0 998.5 0.0 W 4.8 0.0
01:50 -1.0 96.0 998.5 0.0 W 4.8 0.0
01:55 -1.1 96.0 998.6 0.0 W 3.2 0.0
02:00 -1.1 95.0 998.5 0.0 W 1.6 0.0
02:05 -1.1 95.0 998.4 0.0 W 1.6 0.0
02:10 -1.1 95.0 998.5 0.0 W 1.6 0.0
02:15 -1.1 95.0 998.5 0.0 W 0.0 0.0
02:20 -1.2 95.0 998.5 0.0 W 0.0 0.0
02:25 -1.3 95.0 998.4 0.0 W 0.0 0.0
02:30 -1.4 95.0 998.4 3.2 W 4.8 0.0
02:35 -1.6 95.0 998.3 6.4 W 6.4 0.0
02:40 -1.6 95.0 998.4 3.2 W 9.7 0.0
02:45 -1.7 95.0 998.5 3.2 W 9.7 0.0
02:50 -1.7 95.0 998.5 6.4 W 6.4 0.0
02:55 -1.7 95.0 998.4 6.4 W 9.7 0.0
03:00 -1.7 95.0 998.4 4.8 W 9.7 0.0
03:05 -1.7 95.0 998.4 4.8 W 9.7 0.0
03:10 -1.7 95.0 998.3 6.4 W 9.7 0.0
03:15 -1.7 95.0 998.2 11.3 W 11.3 0.0
03:20 -1.7 95.0 998.2 6.4 W 12.9 0.0
03:25 -1.7 95.0 998.2 6.4 W 11.3 0.0
03:30 -1.7 95.0 998.3 6.4 W 11.3 0.0
03:35 -1.8 95.0 998.3 9.7 W 11.3 0.0
03:40 -1.8 95.0 998.3 9.7 W 11.3 0.0
03:45 -1.8 95.0 998.3 4.8 W 9.7 0.2
03:50 -1.8 95.0 998.3 0.0 W 9.7 0.0
03:55 -1.7 95.0 998.4 0.0 W 3.2 0.0
04:00 -1.8 95.0 998.5 3.2 W 6.4 0.0
04:05 -1.8 95.0 998.5 9.7 W 11.3 0.0
04:10 -1.9 95.0 998.5 0.0 W 11.3 0.0
04:15 -1.8 95.0 998.6 6.4 W 11.3 0.0
04:20 -1.9 95.0 998.6 3.2 W 9.7 0.0
04:25 -1.9 95.0 998.6 0.0 W 6.4 0.0
04:30 -1.9 95.0 998.6 0.0 W 4.8 0.0
04:35 -1.9 95.0 998.6 1.6 W 4.8 0.0
04:40 -1.8 95.0 998.6 6.4 W 9.7 0.0
04:45 -1.7 95.0 998.6 9.7 W 11.3 0.0
04:50 -1.7 95.0 998.7 6.4 W 11.3 0.0
04:55 -1.7 95.0 998.6 1.6 W 9.7 0.0
05:00 -1.8 95.0 998.7 0.0 W 4.8 0.0
05:05 -1.8 94.0 998.7 0.0 W 1.6 0.0
05:10 -1.8 95.0 998.7 0.0 W 3.2 0.0
05:15 -1.8 95.0 998.7 0.0 W 4.8 0.0
05:20 -1.9 95.0 998.7 3.2 W 9.7 0.0
05:25 -1.8 94.0 998.8 6.4 W 9.7 0.0
05:30 -1.8 95.0 998.8 6.4 W 11.3 0.0
05:35 -1.8 95.0 998.8 4.8 W 12.9 0.0
05:40 -1.8 95.0 998.8 11.3 W 12.9 0.0
05:45 -1.8 95.0 998.8 9.7 W 12.9 0.0
05:50 -1.8 95.0 998.8 12.9 W 16.1 0.0
05:55 -1.7 95.0 998.8 12.9 W 16.1 0.0
06:00 -1.7 95.0 998.8 12.9 W 16.1 0.0
06:05 -1.6 95.0 998.9 14.5 W 17.7 0.0
06:10 -1.6 95.0 998.9 11.3 W 17.7 0.0
06:15 -1.6 95.0 999.0 9.7 W 16.1 0.0
06:20 -1.7 95.0 998.9 11.3 W 16.1 0.0
06:25 -1.7 94.0 998.9 11.3 W 16.1 0.0
06:30 -1.8 94.0 998.7 4.8 W 14.5 0.0
06:35 -1.8 94.0 998.8 16.1 W 17.7 0.0
06:40 -1.8 94.0 998.9 17.7 W 19.3 0.0
06:45 -1.7 94.0 999.0 12.9 W 19.3 0.0
06:50 -1.7 94.0 999.1 6.4 W 19.3 0.0
06:55 -1.7 94.0 999.2 11.3 W 16.1 0.0
07:00 -1.7 94.0 999.3 4.8 W 16.1 0.0
07:05 -1.7 94.0 999.3 6.4 W 14.5 0.0
07:10 -1.7 94.0 999.5 4.8 W 12.9 0.0
07:15 -1.7 94.0 999.5 9.7 W 12.9 0.0
07:20 -1.7 94.0 999.6 11.3 W 14.5 0.0
07:25 -1.7 94.0 999.8 9.7 W 14.5 0.0
07:30 -1.7 94.0 999.9 9.7 W 14.5 0.0
07:35 -1.6 94.0 1000.0 20.9 W 20.9 0.0
07:40 -1.5 94.0 1000.1 14.5 W 24.1 0.0
07:45 -1.4 94.0 1000.2 16.1 W 20.9 0.0
Màxima -0.8 96.0 1000.2 20.9 W 24.1 0.2
Mínima -1.9 94.0 997.4
Total 0.2